When you browse on this site, cookies collect data to enhance your experience and personalize the content and advertising you see.
Visit our Privacy Policy to learn more. By continuing to use the site, you agree to this use of cookies and data.
EN

Hourly Weather Bansko

Today, 6 August, Thursday

Time Temperature Precipitation Wind Pressure Humidity
00:00 +20°C° 0.5 mm 1 mps 718 mmHg 92%
01:00 +20°C° 0.5 mm 1 mps 718 mmHg 92%
02:00 +20°C° 0.5 mm 1 mps 718 mmHg 91%
03:00 +19°C° 0.4 mm 1 mps 718 mmHg 92%
04:00 +19°C° 0.4 mm 1 mps 718 mmHg 92%
05:00 +19°C° 0.4 mm 1 mps 718 mmHg 92%
06:00 +20°C° 0.1 mm 1 mps 718 mmHg 89%
07:00 +21°C° 0.1 mm 1 mps 718 mmHg 85%
08:00 +22°C° 0.1 mm 1 mps 719 mmHg 81%
09:00 +24°C° 0.1 mm 1 mps 719 mmHg 74%
10:00 +25°C° 0.1 mm 2 mps 719 mmHg 66%
11:00 +27°C° 0.1 mm 2 mps 720 mmHg 58%
12:00 +28°C° 0.2 mm 2 mps 719 mmHg 56%
13:00 +28°C° 0.2 mm 2 mps 719 mmHg 54%
14:00 +29°C° 0.2 mm 2 mps 719 mmHg 52%
15:00 +29°C° 0.2 mm 2 mps 719 mmHg 53%
16:00 +29°C° 0.2 mm 2 mps 719 mmHg 53%
17:00 +29°C° 0.2 mm 2 mps 718 mmHg 53%
18:00 +27°C° 0.1 mm 2 mps 718 mmHg 58%
19:00 +25°C° 0.1 mm 2 mps 718 mmHg 62%
20:00 +23°C° 0.1 mm 1 mps 718 mmHg 67%
21:00 +23°C° 0 mm 1 mps 718 mmHg 68%
22:00 +22°C° 0 mm 1 mps 719 mmHg 69%
23:00 +21°C° 0 mm 1 mps 719 mmHg 70%

Tomorrow, 7 August, Friday

Time Temperature Precipitation Wind Pressure Humidity
00:00 +21°C° 0.1 mm 1 mps 719 mmHg 72%
01:00 +20°C° 0.1 mm 1 mps 719 mmHg 73%
02:00 +20°C° 0.1 mm 1 mps 719 mmHg 74%
03:00 +19°C° 0 mm 1 mps 719 mmHg 76%
04:00 +19°C° 0 mm 1 mps 719 mmHg 77%
05:00 +18°C° 0 mm 1 mps 719 mmHg 78%
06:00 +19°C° 0 mm 2 mps 719 mmHg 77%
07:00 +20°C° 0 mm 2 mps 720 mmHg 75%
08:00 +21°C° 0 mm 2 mps 720 mmHg 73%
09:00 +24°C° 0 mm 2 mps 720 mmHg 67%
10:00 +26°C° 0 mm 2 mps 720 mmHg 61%
11:00 +27°C° 0 mm 2 mps 721 mmHg 55%
12:00 +28°C° 0.2 mm 2 mps 720 mmHg 54%
13:00 +29°C° 0.2 mm 3 mps 720 mmHg 53%
14:00 +29°C° 0.2 mm 3 mps 720 mmHg 51%
15:00 +29°C° 0.5 mm 3 mps 719 mmHg 54%
16:00 +29°C° 0.5 mm 2 mps 719 mmHg 56%
17:00 +28°C° 0.5 mm 2 mps 719 mmHg 59%
18:00 +26°C° 1.1 mm 2 mps 719 mmHg 67%
19:00 +24°C° 1.1 mm 2 mps 719 mmHg 75%
20:00 +21°C° 1.1 mm 2 mps 719 mmHg 82%
21:00 +21°C° 1.3 mm 2 mps 719 mmHg 86%
22:00 +21°C° 1.3 mm 1 mps 719 mmHg 89%
23:00 +21°C° 1.3 mm 1 mps 720 mmHg 92%

Day after tomorrow, 8 August, Saturday

Time Temperature Precipitation Wind Pressure Humidity
00:00 +21°C° 0.4 mm 1 mps 720 mmHg 92%
01:00 +20°C° 0.4 mm 2 mps 720 mmHg 92%
02:00 +20°C° 0.4 mm 2 mps 720 mmHg 92%
03:00 +19°C° 0 mm 2 mps 719 mmHg 92%
04:00 +19°C° 0 mm 2 mps 719 mmHg 92%
05:00 +19°C° 0 mm 2 mps 719 mmHg 92%
06:00 +20°C° 0 mm 2 mps 719 mmHg 89%
07:00 +21°C° 0 mm 2 mps 720 mmHg 86%
08:00 +23°C° 0 mm 2 mps 720 mmHg 83%
09:00 +24°C° 0.1 mm 2 mps 720 mmHg 77%
10:00 +25°C° 0.1 mm 2 mps 720 mmHg 71%
11:00 +27°C° 0.1 mm 2 mps 720 mmHg 64%
12:00 +27°C° 1 mm 2 mps 720 mmHg 64%
13:00 +27°C° 1 mm 2 mps 719 mmHg 64%
14:00 +27°C° 1 mm 2 mps 719 mmHg 64%
15:00 +27°C° 0.8 mm 2 mps 719 mmHg 67%
16:00 +26°C° 0.8 mm 2 mps 719 mmHg 71%
17:00 +26°C° 0.8 mm 2 mps 718 mmHg 74%
18:00 +24°C° 0.5 mm 2 mps 719 mmHg 77%
19:00 +23°C° 0.5 mm 2 mps 719 mmHg 80%
20:00 +21°C° 0.5 mm 2 mps 719 mmHg 84%
21:00 +20°C° 0.7 mm 2 mps 719 mmHg 86%
22:00 +20°C° 0.7 mm 2 mps 719 mmHg 88%
23:00 +20°C° 0.7 mm 2 mps 720 mmHg 89%

9 August, Sunday

Time Temperature Precipitation Wind Pressure Humidity
00:00 +20°C° 0.7 mm 2 mps 719 mmHg 91%
01:00 +20°C° 0.7 mm 1 mps 719 mmHg 93%
02:00 +20°C° 0.7 mm 1 mps 719 mmHg 95%
03:00 +20°C° 0.1 mm 1 mps 719 mmHg 95%
04:00 +20°C° 0.1 mm 1 mps 719 mmHg 95%
05:00 +20°C° 0.1 mm 1 mps 719 mmHg 94%
06:00 +21°C° 0 mm 1 mps 719 mmHg 92%
07:00 +21°C° 0 mm 2 mps 719 mmHg 89%
08:00 +23°C° 0 mm 2 mps 720 mmHg 86%
09:00 +24°C° 0.1 mm 2 mps 720 mmHg 79%
10:00 +26°C° 0.1 mm 2 mps 720 mmHg 72%
11:00 +27°C° 0.1 mm 3 mps 720 mmHg 65%
12:00 +28°C° 0.8 mm 3 mps 720 mmHg 63%
13:00 +28°C° 0.8 mm 3 mps 719 mmHg 62%
14:00 +29°C° 0.8 mm 3 mps 719 mmHg 60%
15:00 +28°C° 0.8 mm 3 mps 719 mmHg 61%
16:00 +28°C° 0.8 mm 3 mps 719 mmHg 62%
17:00 +28°C° 0.8 mm 3 mps 719 mmHg 64%
18:00 +26°C° 0.2 mm 3 mps 719 mmHg 68%
19:00 +24°C° 0.2 mm 2 mps 719 mmHg 72%
20:00 +21°C° 0.2 mm 2 mps 719 mmHg 77%
21:00 +21°C° 0 mm 2 mps 719 mmHg 77%
22:00 +20°C° 0 mm 2 mps 719 mmHg 77%
23:00 +19°C° 0 mm 2 mps 719 mmHg 78%

10 August, Monday

Time Temperature Precipitation Wind Pressure Humidity
00:00 +20°C° 0 mm 1 mps 719 mmHg 78%
01:00 +20°C° 0 mm 1 mps 719 mmHg 79%
02:00 +19°C° 0 mm 1 mps 719 mmHg 79%
03:00 +19°C° 0 mm 1 mps 719 mmHg 80%
04:00 +19°C° 0 mm 1 mps 719 mmHg 80%
05:00 +18°C° 0 mm 1 mps 719 mmHg 80%
06:00 +20°C° 0 mm 1 mps 719 mmHg 76%
07:00 +21°C° 0 mm 1 mps 720 mmHg 72%
08:00 +23°C° 0 mm 1 mps 720 mmHg 67%
09:00 +25°C° 0 mm 2 mps 720 mmHg 61%
10:00 +26°C° 0 mm 2 mps 720 mmHg 55%
11:00 +28°C° 0 mm 3 mps 721 mmHg 50%
12:00 +29°C° 0 mm 3 mps 720 mmHg 48%
13:00 +29°C° 0 mm 3 mps 720 mmHg 47%
14:00 +30°C° 0 mm 3 mps 720 mmHg 46%
15:00 +29°C° 0 mm 3 mps 720 mmHg 49%
16:00 +29°C° 0 mm 2 mps 720 mmHg 52%
17:00 +28°C° 0 mm 2 mps 719 mmHg 55%
18:00 +26°C° 0 mm 2 mps 719 mmHg 61%
19:00 +25°C° 0 mm 2 mps 720 mmHg 66%
20:00 +23°C° 0 mm 2 mps 720 mmHg 72%
21:00 +21°C° 0 mm 2 mps 720 mmHg 73%
22:00 +21°C° 0 mm 1 mps 720 mmHg 73%
23:00 +21°C° 0 mm 1 mps 720 mmHg 74%

11 August, Tuesday

Time Temperature Precipitation Wind Pressure Humidity
00:00 +20°C° 0 mm 1 mps 720 mmHg 74%
01:00 +20°C° 0 mm 1 mps 720 mmHg 75%
02:00 +20°C° 0 mm 1 mps 720 mmHg 75%
03:00 +19°C° 0 mm 1 mps 720 mmHg 76%
04:00 +19°C° 0 mm 1 mps 720 mmHg 76%
05:00 +19°C° 0 mm 1 mps 720 mmHg 77%
06:00 +20°C° 0 mm 1 mps 721 mmHg 72%
07:00 +22°C° 0 mm 1 mps 721 mmHg 67%
08:00 +24°C° 0 mm 1 mps 721 mmHg 63%
09:00 +25°C° 0 mm 1 mps 721 mmHg 58%
10:00 +27°C° 0 mm 1 mps 721 mmHg 53%
11:00 +28°C° 0 mm 2 mps 722 mmHg 48%
12:00 +29°C° 0.1 mm 2 mps 721 mmHg 47%
13:00 +30°C° 0.1 mm 1 mps 721 mmHg 46%
14:00 +30°C° 0.1 mm 1 mps 721 mmHg 45%
15:00 +30°C° 0.1 mm 1 mps 721 mmHg 48%
16:00 +29°C° 0.1 mm 1 mps 721 mmHg 50%
17:00 +29°C° 0.1 mm 1 mps 720 mmHg 53%
18:00 +27°C° 0.1 mm 1 mps 720 mmHg 58%
19:00 +25°C° 0.1 mm 1 mps 720 mmHg 63%
20:00 +23°C° 0.1 mm 1 mps 720 mmHg 69%
21:00 +23°C° 0 mm 1 mps 721 mmHg 71%
22:00 +22°C° 0 mm 1 mps 721 mmHg 72%
23:00 +21°C° 0 mm 1 mps 721 mmHg 74%
Show more